Vorticity
nan nan nan nan nan nan nan nan nan nan nan nan nan nan nan nan nan nan nan nan nan nan nan nan nan nan nan nan nan nan nan nan nan nan nan nan nan nan nan nan nan nan nan
nan 1 8 13 8 7 6 6 6 6 6 6 6 5 6 6 6 5 4 5 5 6 5 5 5 5 6 5 5 5 3 3 4 5 7 8 8 6 6 7 6 8 nan
nan 7 3 5 11 9 8 8 6 6 6 6 6 5 5 7 7 6 5 4 5 5 5 5 5 5 4 5 6 5 4 6 8 9 6 7 7 7 6 7 7 7 nan
nan 7 2 5 8 8 9 9 8 8 7 7 6 6 6 6 6 7 6 5 5 5 5 5 5 4 4 4 5 4 4 6 9 10 6 5 6 6 5 6 7 6 nan
nan 7 4 6 8 9 9 9 9 8 7 8 9 9 7 6 6 7 7 6 5 4 5 5 4 4 4 4 4 4 4 5 7 7 7 6 6 4 6 6 6 4 nan
nan 6 4 6 8 8 8 9 9 8 6 7 10 11 11 10 9 9 9 7 6 6 6 5 5 4 4 4 4 4 4 5 7 7 6 8 8 5 5 5 5 4 nan
nan 7 4 2 7 7 7 7 8 8 6 7 7 8 10 11 9 9 11 12 11 9 8 8 7 6 6 4 4 5 5 6 7 5 6 6 6 10 6 5 4 4 nan
nan 8 5 0 2 6 6 6 7 7 6 7 7 7 6 6 6 7 8 10 11 11 11 11 11 9 7 6 6 6 5 6 7 6 7 6 3 11 13 7 4 5 nan
nan 8 7 4 1 0 1 5 5 6 6 6 6 6 6 5 5 5 6 6 8 8 8 10 13 15 11 8 8 7 5 7 8 6 7 6 3 7 16 11 5 4 nan
nan 7 7 8 8 5 -1 -1 3 3 5 5 4 6 5 3 3 4 4 6 6 6 6 7 8 12 16 16 10 8 8 9 8 8 8 1 4 8 11 13 6 4 nan
nan 6 7 7 8 7 6 -0 -0 0 1 3 3 5 9 6 2 1 0 4 6 7 6 5 6 7 11 13 12 11 13 12 8 8 6 2 4 6 10 10 8 7 nan
nan 8 8 7 8 10 6 5 3 4 3 2 5 6 7 6 5 4 1 2 3 4 5 5 6 8 12 12 7 10 12 8 9 8 5 3 6 5 7 11 10 7 nan
nan 6 7 8 8 9 8 9 7 6 6 3 4 9 9 8 7 7 6 4 1 6 9 5 7 5 6 8 7 7 7 10 10 8 6 7 7 8 9 10 8 8 nan
nan 6 7 9 8 9 10 7 8 8 7 6 4 7 10 8 7 8 7 6 8 6 6 8 7 5 6 7 7 7 7 8 8 8 8 8 9 9 8 13 10 5 nan
nan 6 6 8 7 7 9 8 7 7 7 6 6 6 9 8 8 8 7 8 7 7 7 7 7 7 7 8 7 7 7 7 8 8 5 8 9 10 11 11 10 8 nan
nan 7 7 7 8 8 7 8 8 7 7 7 6 6 8 9 8 8 7 7 7 7 7 8 7 8 8 7 7 8 9 7 7 7 6 7 8 10 11 12 10 7 nan
nan 7 8 7 7 8 8 8 8 7 8 7 6 5 7 8 8 9 8 7 7 7 8 9 8 8 9 8 8 8 8 8 7 7 8 8 9 11 11 11 12 11 nan
nan 8 8 6 8 8 8 8 7 8 8 7 7 6 5 7 8 9 8 6 7 8 8 8 8 8 8 7 8 8 8 8 8 9 7 6 7 8 10 11 12 12 nan
nan 7 7 7 8 8 9 8 7 7 8 7 7 6 5 7 8 10 8 6 8 9 7 7 8 8 7 8 8 8 10 9 8 8 8 8 8 7 8 10 14 13 nan
nan 8 8 7 7 10 10 9 8 7 7 7 6 5 7 6 7 9 8 7 8 8 7 6 7 8 9 9 9 12 10 8 10 10 10 10 10 9 8 10 11 14 nan
nan 7 7 8 8 9 8 10 8 7 8 6 6 6 7 6 7 9 8 7 7 7 7 8 8 8 10 11 10 11 14 12 13 11 10 10 11 12 11 10 9 9 nan
nan 6 7 7 9 10 9 8 8 7 8 7 6 7 5 5 7 8 8 8 8 7 7 8 9 10 7 8 11 8 10 12 10 11 10 8 9 9 9 10 10 9 nan
nan 7 8 8 8 8 9 11 10 10 8 5 5 7 6 7 7 7 8 8 7 8 8 7 8 8 7 6 10 10 8 4 7 10 6 4 3 8 10 9 7 10 nan
nan 7 6 7 7 7 9 10 9 8 8 7 7 6 5 7 8 8 8 8 9 8 7 7 7 8 8 7 9 9 5 5 4 8 2 1 8 9 8 5 8 8 nan
nan 7 6 6 7 7 8 8 8 8 9 6 6 7 9 9 9 8 8 8 9 8 8 7 7 8 8 8 7 7 8 8 8 5 3 8 7 6 5 7 7 5 nan
nan nan nan nan nan nan nan nan nan nan nan nan nan nan nan nan nan nan nan nan nan nan nan nan nan nan nan nan nan nan nan nan nan nan nan nan nan nan nan nan nan nan nan
CAPE
0 2 630 940 1166 1271 1293 1328 1368 1363 1385 1290 905 688 630 613 842 448 250 188 136 236 192 25 1 0 159 379 572 652 531 493 383 425 627 838 719 731 627 767 824 713 977
0 0 233 786 978 1140 1284 1286 1288 1452 1604 1323 1140 910 765 984 1184 631 513 372 202 50 17 14 0 0 0 43 82 242 250 65 49 98 422 377 680 674 586 703 865 717 995
0 0 0 172 627 832 961 1055 1083 1173 1153 1165 1181 1179 1146 1097 972 826 613 404 308 168 0 0 0 0 0 0 0 63 24 28 47 57 181 177 317 639 567 665 679 898 962
0 0 0 36 118 127 535 847 880 873 936 929 1030 1084 1048 922 865 743 682 676 448 361 190 27 0 0 0 0 0 0 10 9 15 30 3 55 336 438 527 638 711 818 806
0 0 0 13 22 46 46 11 32 135 154 116 183 489 722 700 679 624 676 664 584 554 486 285 129 84 36 25 0 0 0 0 0 0 0 3 128 433 405 555 577 794 826
0 0 0 9 13 18 15 15 9 3 3 2 1 0 2 461 691 660 526 486 472 415 311 305 409 303 218 239 165 101 88 0 0 0 0 0 125 603 427 472 646 455 482
0 0 0 9 7 6 6 8 11 15 12 9 7 8 11 10 69 209 299 473 416 383 339 282 224 250 347 308 267 334 347 20 0 0 0 0 0 402 553 403 281 371 238
0 0 0 0 6 7 6 9 5 4 4 3 3 2 3 5 6 5 5 2 2 2 53 224 352 270 248 221 231 198 354 96 0 0 0 0 0 141 490 274 312 175 98
0 0 0 0 0 0 6 5 1 0 0 0 0 0 0 0 1 7 6 6 5 3 2 1 17 291 278 242 247 270 102 2 0 0 0 0 0 32 429 519 470 412 238
0 0 0 0 0 0 0 0 0 0 0 0 0 0 0 0 0 0 0 1 2 4 4 1 0 0 1 282 347 233 19 1 0 0 0 0 0 107 325 376 679 765 828
0 0 0 0 0 0 0 0 0 0 0 0 0 0 0 0 0 0 0 0 0 0 0 2 1 0 0 0 3 8 0 0 0 0 0 0 0 4 315 315 496 769 797
0 0 0 0 0 0 0 0 0 0 0 0 0 0 0 0 0 0 0 0 0 0 0 0 0 0 0 0 0 0 0 0 0 0 0 0 0 0 0 473 546 424 882
0 0 0 0 0 0 0 0 0 0 0 0 0 0 0 0 0 0 0 0 0 0 0 0 0 0 0 0 0 0 0 0 0 0 0 0 0 0 0 450 558 665 638
0 0 0 0 0 0 0 0 0 0 0 0 0 0 0 0 0 0 0 0 0 0 0 0 0 0 0 0 0 0 0 0 0 0 0 0 0 0 9 353 799 529 519
0 0 0 0 0 0 0 0 0 0 0 0 0 0 0 0 0 0 0 0 0 0 0 0 0 0 0 0 0 0 0 0 0 0 0 0 2 0 40 31 611 693 747
0 0 0 0 0 0 0 0 0 0 0 0 0 0 0 0 0 0 0 0 0 0 0 0 0 0 0 0 0 0 0 0 0 0 0 0 2 8 19 0 415 549 449
0 0 0 0 0 0 0 0 0 0 0 0 0 0 0 0 0 0 0 0 0 0 0 0 0 0 0 0 0 0 0 0 0 0 0 0 0 0 8 126 86 412 461
0 0 0 0 0 0 0 0 0 0 0 0 0 0 0 0 0 0 0 0 0 0 0 0 0 0 0 0 0 0 0 0 0 0 0 0 0 0 1 39 172 249 244
0 0 0 0 0 0 0 0 0 0 0 0 0 0 0 0 0 0 0 0 0 0 0 0 0 0 0 0 0 0 0 0 0 0 0 0 0 0 0 0 13 27 77
0 0 0 0 0 0 0 0 0 0 0 0 0 0 0 0 0 0 0 0 0 0 0 0 0 0 0 0 0 0 0 0 0 0 0 0 0 0 0 0 0 2 5
0 0 0 0 0 0 0 0 0 0 0 0 0 0 0 0 0 0 0 0 0 0 0 0 0 0 0 0 0 0 0 0 0 0 0 0 0 0 0 0 0 0 0
0 0 0 0 0 0 0 0 0 0 0 0 0 0 0 0 0 0 0 0 0 0 0 0 0 0 0 0 0 0 0 0 0 0 0 0 0 0 0 0 0 0 0
0 0 0 0 0 0 0 0 0 0 0 0 0 0 0 0 0 0 0 0 0 0 0 0 0 0 0 0 0 0 0 0 0 0 0 0 0 0 0 0 0 0 0
0 0 0 0 0 0 0 0 0 0 0 0 0 0 0 0 0 0 0 0 0 0 0 0 0 0 0 0 0 0 0 0 0 0 0 0 0 0 0 0 0 0 0
0 0 0 0 0 0 0 0 0 0 0 0 0 0 0 0 0 0 0 0 0 0 0 0 0 0 0 0 0 0 0 0 0 0 0 0 0 0 0 0 0 0 0
0 0 0 0 0 0 0 0 0 0 0 0 0 0 0 0 0 0 0 0 0 0 0 0 0 0 0 0 0 0 0 0 0 0 0 0 0 0 0 0 0 0 0